sat.trackr.live / text

‹ back to catalog

STARLINK-30716

NORAD 57936 · 2023-148B

PAYLOAD ACTIVE UNKNOWN

§ Identity

Operator
Country
US
Launch date
2023-09-25
Launch site
AFWTR
Launch vehicle
Mass (kg)
RCS (m²)

Purposes: comms

External: N2YO · Heavens-Above · Gunter

§ Orbital elements

Epoch: 2026-09-20T12:27:35.909568Z

Period
93.85 min
Inclination
53.1611°
Eccentricity
0.0001035
Mean motion
15.34395341 rev/d
Perigee alt
462.0 km
Apogee alt
463.4 km
Semi-major
6,840.9 km
B*
1.4225e-5
RAAN
197.6779°
Arg perigee
89.6830°
Mean anomaly
270.4291°
Rev number
16,827

§ Raw data

STARLINK-307161 57936U 23148B   26263.51916562  .00000104  00000+0  14225-4 0  99942 57936  53.1611 197.6779 0001035  89.6830 270.4291 15.34395341168275

JSON: /api/v1/satellites/57936 · /tle

For live sub-satellite position, see the globe view (requires WebGL).

§ Visibility from observer

Set your observer location to see the next 7 days of passes ≥ 10°. The values pass through the URL so the page stays shareable.

No JS? Fill the form by hand. The geolocation button needs JavaScript.